Location: �terpigny
(49.8910°N, 2.9249°E)
Time: 05:08:23
(UTC+00:00)

Cosmos 332 Rocket - Pass Details

Date: 04 June 2022
Orbit: 681 x 703 km, 74.0° (Epoch: 06 July)

Event Time Altitude Azimuth Distance (km) Brightness Sun altitude
Exits shadow 01:30:44 - 264° (W) 2,843 6.7 -14.1°
Reaches altitude 10° 01:33:32 10° 286° (WNW) 2,129 6.2 -13.9°
Maximum altitude 01:36:01 14° 318° (NW) 1,877 6.3 -13.7°
Drops below altitude 10° 01:38:31 10° 349° (N) 2,138 7.1 -13.6°
Sets 01:41:59 0° 15° (NNE) 3,061 8.9 -13.3°
